QPF
0.00 0.00 0.00 0.00 0.01 0.01 0.02 0.03 0.04 0.04 0.04 0.05 0.04 0.03 0.02 0.02 0.01 0.02 0.02 0.02 0.02 0.02 0.02 0.02 0.02 0.02 0.03 0.02 0.01 0.01 0.01 0.02 0.01 0.01 0.01 0.01 0.01 0.01 0.02 0.02 0.01 0.02 0.02 0.02
0.01 0.00 0.00 0.01 0.01 0.02 0.02 0.04 0.04 0.04 0.04 0.04 0.03 0.02 0.02 0.02 0.02 0.02 0.01 0.01 0.02 0.01 0.01 0.02 0.02 0.03 0.04 0.04 0.03 0.02 0.02 0.01 0.01 0.01 0.01 0.01 0.01 0.01 0.02 0.02 0.01 0.01 0.01 0.02
0.02 0.01 0.01 0.02 0.02 0.02 0.02 0.05 0.04 0.02 0.03 0.03 0.03 0.03 0.02 0.02 0.01 0.01 0.01 0.01 0.01 0.01 0.01 0.01 0.01 0.02 0.04 0.05 0.05 0.04 0.03 0.02 0.02 0.01 0.01 0.01 0.01 0.01 0.02 0.02 0.02 0.01 0.02 0.03
0.03 0.03 0.03 0.03 0.03 0.03 0.02 0.06 0.03 0.01 0.02 0.03 0.03 0.02 0.01 0.01 0.01 0.01 0.01 0.02 0.01 0.01 0.01 0.01 0.02 0.02 0.03 0.04 0.04 0.04 0.04 0.03 0.02 0.01 0.01 0.00 0.01 0.02 0.02 0.03 0.03 0.02 0.02 0.03
0.03 0.04 0.04 0.04 0.02 0.03 0.04 0.06 0.05 0.02 0.03 0.03 0.03 0.02 0.02 0.02 0.01 0.02 0.02 0.02 0.01 0.01 0.01 0.01 0.01 0.02 0.01 0.01 0.02 0.03 0.03 0.02 0.02 0.01 0.01 0.01 0.01 0.02 0.02 0.02 0.03 0.03 0.03 0.04
0.03 0.04 0.06 0.05 0.03 0.02 0.03 0.06 0.04 0.04 0.04 0.04 0.04 0.04 0.04 0.02 0.02 0.01 0.01 0.01 0.01 0.01 0.02 0.01 0.01 0.02 0.01 0.01 0.01 0.02 0.02 0.01 0.01 0.01 0.01 0.01 0.01 0.02 0.03 0.03 0.03 0.03 0.03 0.03
0.04 0.05 0.06 0.06 0.04 0.02 0.05 0.06 0.04 0.04 0.03 0.03 0.03 0.03 0.04 0.03 0.02 0.01 0.01 0.01 0.01 0.01 0.01 0.02 0.02 0.02 0.02 0.02 0.02 0.01 0.01 0.01 0.01 0.01 0.01 0.01 0.01 0.01 0.02 0.03 0.03 0.03 0.03 0.03
0.03 0.04 0.05 0.05 0.04 0.04 0.05 0.05 0.04 0.03 0.03 0.02 0.02 0.01 0.02 0.02 0.02 0.01 0.01 0.01 0.01 0.01 0.01 0.02 0.02 0.02 0.02 0.02 0.02 0.01 0.01 0.02 0.02 0.02 0.02 0.01 0.01 0.01 0.02 0.02 0.02 0.02 0.02 0.02
0.05 0.04 0.04 0.03 0.04 0.04 0.04 0.03 0.03 0.03 0.03 0.02 0.02 0.01 0.01 0.01 0.01 0.01 0.01 0.01 0.01 0.02 0.02 0.01 0.02 0.03 0.03 0.02 0.03 0.03 0.03 0.02 0.02 0.02 0.02 0.02 0.02 0.03 0.02 0.02 0.01 0.01 0.01 0.01
0.05 0.03 0.03 0.03 0.03 0.03 0.03 0.03 0.03 0.04 0.04 0.03 0.03 0.03 0.03 0.02 0.01 0.01 0.01 0.02 0.03 0.03 0.03 0.03 0.04 0.04 0.04 0.04 0.04 0.04 0.04 0.04 0.03 0.02 0.02 0.02 0.02 0.03 0.04 0.03 0.02 0.02 0.01 0.01
0.04 0.05 0.07 0.06 0.04 0.03 0.03 0.03 0.02 0.03 0.04 0.04 0.04 0.04 0.04 0.03 0.03 0.03 0.03 0.02 0.04 0.03 0.04 0.04 0.05 0.07 0.06 0.06 0.06 0.05 0.05 0.04 0.04 0.03 0.03 0.02 0.02 0.02 0.03 0.04 0.04 0.03 0.02 0.02
0.07 0.09 0.09 0.07 0.05 0.03 0.04 0.03 0.02 0.03 0.03 0.02 0.02 0.03 0.03 0.03 0.04 0.04 0.04 0.04 0.04 0.04 0.04 0.03 0.03 0.04 0.04 0.05 0.06 0.06 0.04 0.04 0.04 0.04 0.04 0.03 0.03 0.02 0.02 0.03 0.04 0.05 0.04 0.04
0.05 0.05 0.05 0.04 0.04 0.05 0.05 0.03 0.02 0.02 0.03 0.02 0.02 0.02 0.03 0.03 0.03 0.04 0.05 0.05 0.04 0.03 0.04 0.04 0.04 0.03 0.03 0.03 0.04 0.04 0.03 0.03 0.02 0.03 0.04 0.04 0.04 0.03 0.03 0.03 0.04 0.05 0.04 0.03
0.02 0.02 0.02 0.03 0.03 0.03 0.04 0.02 0.02 0.03 0.04 0.04 0.03 0.04 0.04 0.03 0.04 0.04 0.04 0.05 0.05 0.04 0.03 0.03 0.03 0.03 0.03 0.03 0.03 0.03 0.02 0.02 0.03 0.03 0.03 0.06 0.06 0.04 0.04 0.03 0.03 0.03 0.03 0.02
0.01 0.01 0.01 0.01 0.02 0.02 0.02 0.02 0.02 0.03 0.04 0.04 0.04 0.03 0.03 0.04 0.04 0.04 0.05 0.04 0.04 0.04 0.04 0.03 0.04 0.04 0.04 0.03 0.02 0.03 0.03 0.02 0.03 0.03 0.05 0.07 0.06 0.04 0.02 0.02 0.02 0.02 0.02 0.02
0.01 0.00 0.00 0.01 0.02 0.03 0.02 0.02 0.02 0.02 0.03 0.04 0.05 0.04 0.03 0.03 0.05 0.06 0.04 0.04 0.03 0.03 0.04 0.05 0.05 0.05 0.05 0.06 0.04 0.03 0.03 0.03 0.03 0.03 0.05 0.08 0.07 0.04 0.03 0.03 0.03 0.02 0.02 0.02
0.01 0.01 0.01 0.01 0.01 0.03 0.03 0.03 0.02 0.02 0.03 0.04 0.03 0.02 0.02 0.02 0.02 0.04 0.05 0.03 0.02 0.01 0.02 0.04 0.06 0.06 0.05 0.06 0.05 0.04 0.03 0.03 0.03 0.03 0.04 0.05 0.05 0.04 0.03 0.03 0.03 0.03 0.03 0.02
0.01 0.02 0.02 0.02 0.02 0.02 0.03 0.03 0.03 0.02 0.03 0.02 0.02 0.02 0.02 0.02 0.02 0.01 0.02 0.03 0.02 0.01 0.01 0.01 0.04 0.06 0.05 0.04 0.04 0.03 0.02 0.02 0.03 0.03 0.02 0.02 0.02 0.02 0.02 0.02 0.03 0.03 0.02 0.02
0.01 0.01 0.01 0.01 0.01 0.01 0.03 0.03 0.03 0.03 0.03 0.02 0.02 0.03 0.03 0.03 0.03 0.03 0.02 0.02 0.02 0.01 0.01 0.01 0.01 0.03 0.04 0.05 0.04 0.03 0.02 0.01 0.02 0.02 0.02 0.02 0.01 0.01 0.01 0.01 0.02 0.02 0.02 0.02
0.01 0.01 0.01 0.01 0.01 0.01 0.02 0.02 0.02 0.03 0.03 0.02 0.02 0.03 0.03 0.03 0.03 0.03 0.02 0.02 0.01 0.01 0.01 0.00 0.00 0.01 0.02 0.03 0.03 0.03 0.04 0.02 0.02 0.02 0.02 0.02 0.02 0.01 0.01 0.01 0.01 0.01 0.02 0.02
0.01 0.01 0.01 0.01 0.01 0.01 0.01 0.02 0.02 0.02 0.02 0.01 0.01 0.02 0.03 0.03 0.03 0.04 0.04 0.03 0.02 0.02 0.01 0.01 0.01 0.01 0.01 0.02 0.02 0.03 0.03 0.04 0.04 0.03 0.03 0.03 0.03 0.02 0.01 0.01 0.01 0.01 0.01 0.01
0.01 0.01 0.02 0.02 0.02 0.02 0.03 0.04 0.03 0.02 0.01 0.01 0.01 0.01 0.02 0.03 0.03 0.04 0.04 0.05 0.04 0.03 0.02 0.02 0.02 0.02 0.02 0.02 0.01 0.02 0.02 0.03 0.03 0.03 0.03 0.02 0.02 0.02 0.02 0.02 0.01 0.01 0.01 0.01
0.01 0.02 0.02 0.03 0.02 0.02 0.02 0.02 0.02 0.01 0.01 0.01 0.01 0.01 0.02 0.02 0.02 0.02 0.04 0.04 0.04 0.03 0.02 0.02 0.02 0.03 0.03 0.02 0.02 0.01 0.02 0.02 0.02 0.02 0.02 0.02 0.02 0.02 0.02 0.02 0.02 0.02 0.01 0.01
0.01 0.02 0.02 0.02 0.01 0.01 0.02 0.01 0.01 0.01 0.01 0.01 0.01 0.01 0.01 0.01 0.01 0.01 0.01 0.02 0.02 0.02 0.02 0.02 0.02 0.02 0.02 0.02 0.02 0.01 0.02 0.01 0.01 0.01 0.02 0.02 0.02 0.02 0.02 0.02 0.02 0.02 0.01 0.01
0.01 0.02 0.02 0.01 0.01 0.02 0.01 0.01 0.01 0.01 0.01 0.01 0.01 0.01 0.01 0.01 0.01 0.01 0.01 0.01 0.01 0.01 0.01 0.01 0.01 0.01 0.01 0.01 0.01 0.02 0.02 0.02 0.02 0.02 0.02 0.02 0.02 0.02 0.02 0.02 0.02 0.02 0.01 0.01
0.01 0.02 0.01 0.01 0.02 0.02 0.01 0.01 0.01 0.01 0.01 0.01 0.01 0.01 0.02 0.02 0.02 0.01 0.01 0.01 0.02 0.02 0.02 0.01 0.01 0.01 0.01 0.01 0.01 0.02 0.02 0.02 0.03 0.02 0.02 0.03 0.03 0.02 0.02 0.02 0.02 0.02 0.01 0.01
0.01 0.01 0.01 0.01 0.01 0.01 0.01 0.01 0.01 0.02 0.01 0.01 0.01 0.01 0.01 0.02 0.02 0.02 0.03 0.03 0.03 0.02 0.02 0.01 0.01 0.01 0.01 0.01 0.01 0.02 0.02 0.02 0.02 0.02 0.02 0.02 0.02 0.02 0.02 0.02 0.02 0.01 0.01 0.01
MSLP
1005.50 1004.27 1003.29 1002.60 1002.20 1002.05 1002.06 1002.13 1002.18 1002.13 1001.96 1001.67 1001.29 1000.90 1000.56 1000.35 1000.32 1000.48 1000.85 1001.38 1002.04 1002.79 1003.58 1004.38 1005.17 1005.96 1006.75 1007.54 1008.34 1009.14 1009.93 1010.68 1011.38 1012.01 1012.56 1013.02 1013.40 1013.72 1014.00 1014.27 1014.53 1014.81 1015.09 1015.38
1005.18 1004.10 1003.25 1002.66 1002.33 1002.22 1002.26 1002.35 1002.43 1002.43 1002.32 1002.08 1001.76 1001.40 1001.06 1000.81 1000.69 1000.73 1000.94 1001.30 1001.79 1002.38 1003.04 1003.74 1004.47 1005.24 1006.02 1006.83 1007.66 1008.50 1009.33 1010.13 1010.87 1011.55 1012.14 1012.64 1013.07 1013.44 1013.76 1014.06 1014.34 1014.62 1014.89 1015.16
1004.91 1004.05 1003.39 1002.95 1002.73 1002.69 1002.76 1002.87 1002.96 1002.97 1002.87 1002.65 1002.34 1001.98 1001.62 1001.31 1001.10 1001.01 1001.06 1001.25 1001.56 1001.99 1002.51 1003.10 1003.76 1004.48 1005.25 1006.08 1006.93 1007.81 1008.68 1009.51 1010.30 1011.02 1011.65 1012.20 1012.67 1013.08 1013.44 1013.77 1014.07 1014.35 1014.61 1014.86
1004.90 1004.29 1003.85 1003.57 1003.45 1003.45 1003.53 1003.63 1003.68 1003.65 1003.52 1003.29 1002.96 1002.57 1002.18 1001.81 1001.51 1001.31 1001.22 1001.25 1001.41 1001.68 1002.06 1002.54 1003.11 1003.78 1004.53 1005.35 1006.21 1007.11 1008.00 1008.87 1009.68 1010.43 1011.09 1011.67 1012.18 1012.62 1013.01 1013.36 1013.68 1013.97 1014.23 1014.46
1005.29 1004.92 1004.65 1004.51 1004.46 1004.47 1004.51 1004.53 1004.50 1004.39 1004.19 1003.90 1003.53 1003.12 1002.69 1002.29 1001.93 1001.65 1001.45 1001.37 1001.39 1001.53 1001.78 1002.15 1002.64 1003.24 1003.94 1004.73 1005.58 1006.47 1007.36 1008.23 1009.05 1009.81 1010.48 1011.08 1011.60 1012.06 1012.47 1012.84 1013.17 1013.47 1013.73 1013.97
1006.11 1005.91 1005.78 1005.71 1005.67 1005.64 1005.59 1005.49 1005.33 1005.11 1004.81 1004.45 1004.04 1003.61 1003.18 1002.76 1002.39 1002.07 1001.83 1001.66 1001.59 1001.63 1001.77 1002.04 1002.44 1002.96 1003.59 1004.32 1005.13 1005.98 1006.84 1007.68 1008.48 1009.21 1009.87 1010.46 1010.98 1011.44 1011.86 1012.23 1012.58 1012.89 1013.17 1013.41
1007.24 1007.17 1007.12 1007.06 1006.98 1006.85 1006.66 1006.42 1006.11 1005.75 1005.36 1004.93 1004.50 1004.08 1003.67 1003.29 1002.95 1002.64 1002.39 1002.20 1002.08 1002.04 1002.11 1002.28 1002.59 1003.01 1003.56 1004.21 1004.93 1005.71 1006.50 1007.28 1008.02 1008.71 1009.33 1009.88 1010.38 1010.82 1011.23 1011.61 1011.96 1012.29 1012.58 1012.85
1008.52 1008.51 1008.48 1008.38 1008.21 1007.96 1007.63 1007.23 1006.78 1006.31 1005.83 1005.37 1004.95 1004.56 1004.22 1003.92 1003.65 1003.41 1003.19 1003.01 1002.88 1002.80 1002.80 1002.90 1003.11 1003.43 1003.87 1004.42 1005.04 1005.71 1006.41 1007.10 1007.75 1008.36 1008.91 1009.41 1009.86 1010.28 1010.67 1011.04 1011.40 1011.74 1012.06 1012.36
1009.69 1009.71 1009.66 1009.51 1009.24 1008.87 1008.41 1007.88 1007.32 1006.77 1006.26 1005.81 1005.43 1005.12 1004.88 1004.69 1004.52 1004.38 1004.23 1004.09 1003.97 1003.87 1003.83 1003.86 1003.97 1004.20 1004.52 1004.95 1005.45 1006.00 1006.58 1007.15 1007.69 1008.20 1008.67 1009.10 1009.49 1009.87 1010.24 1010.59 1010.95 1011.31 1011.65 1011.98
1010.57 1010.59 1010.51 1010.30 1009.96 1009.50 1008.95 1008.35 1007.74 1007.17 1006.67 1006.27 1005.98 1005.78 1005.66 1005.60 1005.56 1005.52 1005.46 1005.38 1005.28 1005.18 1005.10 1005.07 1005.11 1005.23 1005.44 1005.75 1006.12 1006.54 1006.98 1007.42 1007.85 1008.25 1008.62 1008.97 1009.30 1009.62 1009.95 1010.29 1010.65 1011.01 1011.37 1011.72
1011.03 1011.05 1010.95 1010.71 1010.33 1009.84 1009.26 1008.65 1008.06 1007.53 1007.10 1006.79 1006.60 1006.53 1006.54 1006.61 1006.68 1006.75 1006.77 1006.74 1006.67 1006.58 1006.48 1006.40 1006.37 1006.41 1006.52 1006.71 1006.95 1007.24 1007.56 1007.87 1008.18 1008.47 1008.74 1008.99 1009.25 1009.52 1009.81 1010.12 1010.46 1010.82 1011.18 1011.55
1011.06 1011.09 1011.00 1010.77 1010.40 1009.93 1009.40 1008.84 1008.32 1007.88 1007.55 1007.36 1007.29 1007.34 1007.47 1007.64 1007.81 1007.95 1008.04 1008.06 1008.01 1007.92 1007.81 1007.70 1007.62 1007.59 1007.62 1007.71 1007.85 1008.02 1008.21 1008.41 1008.60 1008.78 1008.95 1009.12 1009.30 1009.51 1009.75 1010.03 1010.34 1010.68 1011.04 1011.40
1010.78 1010.83 1010.77 1010.59 1010.28 1009.89 1009.44 1008.99 1008.58 1008.26 1008.05 1007.96 1008.00 1008.15 1008.36 1008.59 1008.82 1009.01 1009.13 1009.18 1009.15 1009.06 1008.95 1008.82 1008.71 1008.64 1008.61 1008.62 1008.68 1008.75 1008.85 1008.94 1009.02 1009.10 1009.17 1009.26 1009.37 1009.51 1009.70 1009.93 1010.21 1010.52 1010.85 1011.19
1010.35 1010.44 1010.43 1010.32 1010.10 1009.81 1009.48 1009.16 1008.87 1008.67 1008.57 1008.58 1008.69 1008.89 1009.13 1009.40 1009.64 1009.84 1009.96 1010.01 1009.99 1009.91 1009.80 1009.67 1009.55 1009.46 1009.39 1009.36 1009.35 1009.36 1009.37 1009.37 1009.36 1009.35 1009.34 1009.34 1009.38 1009.45 1009.58 1009.76 1009.99 1010.25 1010.54 1010.84
1009.93 1010.06 1010.11 1010.08 1009.96 1009.79 1009.59 1009.38 1009.22 1009.12 1009.10 1009.16 1009.31 1009.51 1009.75 1009.99 1010.21 1010.38 1010.48 1010.52 1010.49 1010.42 1010.32 1010.20 1010.10 1010.00 1009.93 1009.87 1009.82 1009.78 1009.72 1009.65 1009.57 1009.48 1009.39 1009.32 1009.29 1009.29 1009.35 1009.47 1009.64 1009.85 1010.08 1010.32
1009.63 1009.80 1009.91 1009.96 1009.94 1009.87 1009.77 1009.68 1009.60 1009.57 1009.60 1009.68 1009.82 1009.99 1010.18 1010.37 1010.52 1010.64 1010.71 1010.72 1010.69 1010.62 1010.54 1010.45 1010.36 1010.28 1010.21 1010.15 1010.08 1010.00 1009.89 1009.77 1009.63 1009.48 1009.32 1009.19 1009.08 1009.03 1009.02 1009.07 1009.17 1009.31 1009.47 1009.64
1009.49 1009.69 1009.85 1009.95 1010.01 1010.02 1010.01 1010.00 1009.99 1010.00 1010.04 1010.11 1010.21 1010.32 1010.44 1010.54 1010.63 1010.68 1010.70 1010.68 1010.65 1010.59 1010.52 1010.46 1010.40 1010.34 1010.29 1010.22 1010.15 1010.04 1009.91 1009.74 1009.56 1009.35 1009.15 1008.96 1008.80 1008.68 1008.61 1008.59 1008.62 1008.69 1008.77 1008.86
1009.46 1009.68 1009.86 1010.01 1010.13 1010.20 1010.25 1010.29 1010.32 1010.34 1010.38 1010.42 1010.46 1010.51 1010.55 1010.58 1010.59 1010.58 1010.56 1010.52 1010.47 1010.42 1010.38 1010.34 1010.30 1010.27 1010.23 1010.16 1010.08 1009.96 1009.80 1009.61 1009.39 1009.15 1008.91 1008.68 1008.48 1008.31 1008.18 1008.10 1008.06 1008.05 1008.05 1008.06
1009.45 1009.67 1009.87 1010.05 1010.20 1010.32 1010.41 1010.48 1010.53 1010.56 1010.58 1010.60 1010.60 1010.59 1010.56 1010.53 1010.48 1010.43 1010.38 1010.32 1010.27 1010.23 1010.20 1010.17 1010.16 1010.13 1010.09 1010.03 1009.93 1009.79 1009.62 1009.41 1009.17 1008.91 1008.65 1008.39 1008.16 1007.96 1007.79 1007.65 1007.54 1007.45 1007.38 1007.30
1009.36 1009.58 1009.79 1009.99 1010.16 1010.31 1010.43 1010.52 1010.59 1010.63 1010.65 1010.65 1010.62 1010.58 1010.52 1010.45 1010.38 1010.30 1010.23 1010.17 1010.12 1010.08 1010.05 1010.03 1010.01 1009.98 1009.93 1009.86 1009.74 1009.59 1009.40 1009.18 1008.93 1008.66 1008.39 1008.12 1007.87 1007.64 1007.44 1007.25 1007.08 1006.93 1006.77 1006.61
1009.15 1009.37 1009.57 1009.78 1009.96 1010.13 1010.28 1010.39 1010.48 1010.54 1010.57 1010.58 1010.55 1010.51 1010.45 1010.38 1010.30 1010.22 1010.15 1010.09 1010.03 1009.99 1009.96 1009.93 1009.89 1009.84 1009.77 1009.67 1009.53 1009.36 1009.15 1008.92 1008.67 1008.40 1008.13 1007.86 1007.60 1007.35 1007.11 1006.89 1006.66 1006.44 1006.21 1005.97
1008.83 1009.03 1009.23 1009.44 1009.63 1009.81 1009.97 1010.11 1010.22 1010.31 1010.37 1010.40 1010.40 1010.38 1010.35 1010.29 1010.24 1010.17 1010.11 1010.05 1010.00 1009.95 1009.90 1009.85 1009.78 1009.69 1009.59 1009.45 1009.28 1009.09 1008.87 1008.63 1008.37 1008.10 1007.84 1007.57 1007.30 1007.03 1006.76 1006.49 1006.21 1005.91 1005.61 1005.30
1008.45 1008.64 1008.83 1009.03 1009.22 1009.40 1009.57 1009.72 1009.86 1009.97 1010.06 1010.13 1010.17 1010.19 1010.19 1010.18 1010.15 1010.11 1010.07 1010.02 1009.96 1009.89 1009.82 1009.73 1009.62 1009.49 1009.34 1009.16 1008.97 1008.75 1008.51 1008.26 1008.00 1007.74 1007.47 1007.19 1006.91 1006.61 1006.31 1005.98 1005.63 1005.27 1004.89 1004.51
1008.11 1008.28 1008.46 1008.63 1008.81 1008.98 1009.14 1009.30 1009.44 1009.58 1009.69 1009.79 1009.87 1009.93 1009.97 1010.00 1010.00 1009.98 1009.95 1009.90 1009.83 1009.74 1009.63 1009.51 1009.35 1009.18 1008.99 1008.77 1008.54 1008.30 1008.05 1007.79 1007.53 1007.26 1006.98 1006.69 1006.38 1006.04 1005.68 1005.29 1004.87 1004.42 1003.97 1003.51
1007.87 1008.03 1008.18 1008.33 1008.48 1008.62 1008.76 1008.90 1009.04 1009.17 1009.30 1009.41 1009.52 1009.60 1009.67 1009.71 1009.74 1009.73 1009.70 1009.65 1009.56 1009.45 1009.30 1009.13 1008.94 1008.73 1008.50 1008.25 1008.00 1007.74 1007.48 1007.21 1006.94 1006.66 1006.36 1006.04 1005.69 1005.30 1004.86 1004.39 1003.88 1003.35 1002.80 1002.27
1007.78 1007.93 1008.05 1008.17 1008.27 1008.38 1008.48 1008.58 1008.69 1008.80 1008.91 1009.02 1009.12 1009.21 1009.29 1009.34 1009.36 1009.35 1009.31 1009.23 1009.12 1008.97 1008.80 1008.59 1008.37 1008.12 1007.86 1007.60 1007.33 1007.07 1006.80 1006.53 1006.25 1005.95 1005.62 1005.26 1004.85 1004.38 1003.87 1003.30 1002.70 1002.06 1001.43 1000.82
1007.84 1007.97 1008.07 1008.15 1008.21 1008.27 1008.32 1008.37 1008.43 1008.50 1008.58 1008.66 1008.74 1008.81 1008.86 1008.89 1008.89 1008.86 1008.79 1008.68 1008.54 1008.36 1008.15 1007.91 1007.66 1007.39 1007.12 1006.85 1006.58 1006.31 1006.05 1005.77 1005.48 1005.16 1004.80 1004.39 1003.92 1003.38 1002.78 1002.11 1001.40 1000.67 999.94 999.25
Thickness
5678 5684 5683 5680 5680 5680 5677 5680 5679 5683 5686 5687 5692 5692 5692 5694 5695 5696 5697 5699 5700 5701 5701 5701 5701 5701 5702 5701 5700 5699 5697 5695 5693 5692 5691 5690 5688 5687 5686 5685 5685 5684 5682 5682
5666 5674 5674 5671 5673 5673 5670 5672 5673 5674 5673 5682 5684 5684 5683 5684 5685 5686 5689 5690 5692 5692 5693 5694 5694 5694 5693 5692 5691 5691 5689 5688 5688 5686 5685 5683 5683 5681 5680 5679 5679 5678 5678 5677
5658 5667 5664 5656 5663 5665 5664 5666 5667 5665 5667 5673 5672 5673 5674 5675 5676 5677 5680 5682 5683 5684 5686 5686 5686 5686 5685 5684 5684 5682 5681 5681 5680 5680 5678 5677 5677 5676 5675 5674 5674 5673 5673 5672
5650 5648 5637 5650 5660 5659 5657 5658 5661 5661 5662 5665 5666 5667 5669 5670 5670 5670 5672 5673 5675 5676 5678 5678 5678 5678 5678 5677 5675 5674 5673 5673 5674 5673 5672 5671 5670 5669 5669 5668 5668 5667 5667 5667
5641 5640 5640 5642 5647 5647 5645 5646 5653 5653 5655 5657 5660 5660 5661 5663 5665 5664 5665 5666 5667 5669 5671 5671 5670 5670 5669 5668 5668 5667 5667 5666 5667 5667 5666 5665 5664 5663 5662 5662 5661 5661 5662 5661
5635 5631 5626 5633 5639 5642 5639 5634 5641 5642 5642 5645 5649 5649 5653 5656 5657 5658 5658 5659 5660 5662 5662 5662 5663 5663 5662 5661 5661 5660 5660 5660 5660 5661 5660 5658 5657 5656 5656 5656 5655 5656 5656 5656
5626 5623 5624 5626 5630 5633 5624 5623 5629 5632 5635 5637 5639 5643 5646 5648 5649 5651 5651 5652 5654 5654 5654 5654 5655 5655 5655 5655 5654 5654 5653 5652 5653 5653 5652 5652 5651 5650 5649 5649 5649 5649 5650 5650
5620 5616 5612 5615 5618 5615 5613 5618 5621 5624 5627 5629 5632 5635 5637 5639 5640 5643 5644 5646 5646 5646 5646 5646 5646 5647 5647 5647 5647 5646 5645 5644 5644 5645 5646 5646 5644 5643 5643 5642 5642 5642 5643 5644
5606 5603 5602 5606 5605 5604 5607 5609 5613 5617 5619 5621 5624 5627 5629 5630 5632 5634 5635 5636 5637 5637 5637 5637 5638 5639 5639 5639 5639 5638 5637 5636 5637 5637 5638 5638 5637 5637 5637 5637 5637 5638 5639 5639
5596 5597 5596 5598 5598 5598 5600 5601 5605 5609 5612 5616 5617 5620 5621 5622 5623 5624 5626 5627 5627 5628 5628 5629 5630 5631 5631 5631 5631 5630 5629 5629 5629 5629 5630 5631 5631 5632 5632 5632 5631 5632 5632 5632
5590 5590 5590 5590 5590 5591 5593 5595 5597 5601 5606 5608 5609 5611 5613 5613 5614 5615 5616 5618 5618 5619 5619 5621 5622 5623 5624 5624 5623 5623 5623 5622 5622 5623 5624 5623 5624 5623 5624 5624 5623 5621 5623 5624
5585 5584 5583 5583 5585 5586 5585 5587 5590 5592 5596 5599 5601 5602 5604 5605 5606 5606 5607 5608 5609 5610 5611 5613 5614 5615 5615 5615 5615 5615 5615 5616 5617 5617 5617 5617 5617 5617 5614 5613 5611 5610 5609 5610
5579 5580 5581 5580 5580 5581 5581 5582 5585 5586 5588 5590 5593 5595 5596 5596 5597 5598 5599 5599 5600 5601 5602 5603 5605 5606 5607 5607 5607 5607 5607 5607 5609 5610 5610 5610 5610 5610 5609 5606 5604 5603 5602 5601
5576 5575 5575 5575 5575 5576 5576 5578 5579 5581 5582 5583 5584 5586 5587 5588 5589 5589 5590 5592 5593 5593 5594 5595 5596 5597 5598 5599 5599 5599 5600 5600 5601 5602 5603 5603 5603 5603 5604 5603 5603 5603 5598 5594
5571 5572 5571 5572 5571 5571 5572 5572 5573 5573 5574 5575 5576 5577 5578 5579 5579 5580 5582 5583 5584 5585 5586 5587 5588 5588 5589 5590 5591 5591 5592 5594 5594 5595 5597 5597 5597 5597 5597 5597 5598 5597 5596 5593
5567 5568 5568 5567 5566 5566 5566 5566 5566 5567 5567 5567 5568 5569 5571 5572 5572 5573 5573 5574 5574 5575 5576 5578 5579 5580 5581 5582 5583 5584 5585 5583 5583 5587 5589 5589 5590 5590 5590 5590 5591 5591 5590 5590
5560 5560 5561 5561 5561 5561 5561 5561 5561 5562 5562 5562 5563 5564 5565 5566 5566 5565 5566 5567 5567 5567 5569 5569 5571 5573 5574 5574 5575 5578 5579 5579 5575 5579 5581 5582 5582 5582 5582 5582 5582 5583 5583 5583
5558 5557 5557 5557 5557 5556 5555 5555 5555 5556 5555 5556 5557 5558 5558 5558 5557 5558 5558 5559 5560 5561 5562 5562 5563 5565 5566 5567 5568 5570 5572 5572 5572 5573 5574 5574 5574 5574 5574 5574 5574 5575 5576 5576
5554 5554 5553 5552 5552 5552 5552 5552 5551 5551 5550 5551 5551 5551 5551 5551 5551 5551 5551 5552 5553 5554 5554 5555 5553 5556 5558 5560 5559 5563 5565 5566 5566 5566 5567 5565 5566 5568 5567 5567 5567 5567 5567 5567
5549 5549 5549 5548 5548 5548 5548 5548 5547 5546 5546 5546 5546 5546 5545 5545 5545 5545 5545 5546 5547 5548 5548 5548 5549 5550 5552 5553 5551 5557 5558 5558 5559 5559 5560 5561 5561 5560 5560 5560 5560 5559 5558 5557
5544 5544 5544 5543 5543 5543 5543 5543 5542 5542 5541 5541 5540 5540 5539 5539 5539 5539 5540 5542 5541 5541 5542 5541 5543 5545 5546 5546 5544 5550 5551 5551 5552 5552 5553 5553 5553 5553 5553 5552 5551 5551 5549 5549
5539 5539 5538 5538 5538 5538 5538 5538 5537 5537 5536 5536 5535 5535 5534 5534 5535 5535 5535 5534 5535 5533 5536 5539 5540 5537 5537 5537 5541 5543 5545 5545 5545 5546 5546 5545 5545 5544 5544 5543 5543 5542 5542 5541
5534 5534 5533 5533 5533 5533 5533 5533 5533 5532 5531 5531 5530 5529 5529 5529 5531 5530 5529 5528 5529 5526 5529 5531 5529 5527 5527 5532 5535 5536 5537 5537 5538 5538 5538 5538 5537 5536 5535 5536 5535 5535 5534 5534
5529 5529 5529 5529 5528 5528 5528 5529 5528 5528 5527 5526 5526 5525 5525 5525 5526 5526 5524 5521 5520 5519 5523 5521 5519 5520 5520 5526 5529 5529 5530 5529 5529 5529 5529 5529 5529 5528 5528 5528 5528 5527 5526 5526
5524 5525 5526 5525 5524 5525 5525 5525 5524 5524 5524 5525 5524 5522 5522 5521 5521 5521 5519 5517 5515 5515 5518 5516 5514 5514 5518 5522 5522 5522 5522 5521 5520 5520 5519 5519 5519 5519 5519 5518 5518 5518 5518 5517
5522 5522 5523 5521 5521 5522 5523 5523 5522 5521 5521 5521 5521 5520 5518 5517 5516 5515 5513 5513 5513 5511 5513 5514 5514 5513 5515 5516 5516 5515 5514 5513 5512 5511 5510 5510 5509 5509 5509 5509 5508 5508 5508 5508
5520 5520 5519 5520 5520 5520 5520 5520 5519 5518 5518 5517 5516 5515 5513 5511 5510 5510 5509 5510 5509 5509 5509 5510 5510 5510 5510 5509 5509 5507 5506 5505 5504 5503 5502 5502 5502 5502 5501 5501 5501 5501 5500 5500